Location: Unspecified
(0.0000°N, 0.0000°E)
Time: 09:47:55
(UTC+00:00)

Vanguard 2 Rocket - Pass Details

Date: 11 October 2022
Orbit: 555 x 3321 km, 32.9° (Epoch: 29 November)

Event Time Altitude Azimuth Distance (km) Brightness Sun altitude
Exits shadow 03:11:57 16° 61° (ENE) 1,860 8.9 -38.4°
Drops below altitude 10° 03:13:18 10° 76° (ENE) 2,142 9.4 -38.0°
Sets 03:15:44 0° 93° (E) 2,884 10.4 -37.4°
